Simultaneous Nadir Overpasses (SNOs) Predictions

Prediction of SNOs between AQUA and NOAA-19 Satellite Orbit:

Table of predicted SNOs for the next 14.0 days since TLE Epoch: 9/9/2016
Index Date (AQUA) Time (AQUA) Lat,Lon (AQUA) SZA (AQUA ) Date (NOAA-19) Time (NOAA-19) Lat,Lon (NOAA-19) SZA (NOAA-19 ) Distance(km) Time Diff (sec)
1 09/10/2016 06:35:29 80.91, 41.29 78.19 09/10/2016 06:34:39 80.91, 41.38 78.21 1.65 50
2 09/10/2016 07:24:55 -80.90,-150.94 101.82 09/10/2016 07:25:44 -80.90,-150.98 101.83 0.92 49
3 09/12/2016 12:09:13 -80.92, 137.63 100.95 09/12/2016 12:08:45 -80.92, 137.68 100.95 1.41 28
4 09/12/2016 12:58:39 80.91, -54.50 79.03 09/12/2016 12:59:40 80.91, -54.67 79.02 2.98 61
5 09/14/2016 17:42:56 80.91,-125.65 79.86 09/14/2016 17:42:40 80.91,-125.59 79.86 1.05 16
6 09/16/2016 23:16:39 -80.91, -29.09 99.31 09/16/2016 23:16:45 -80.92, -29.17 99.30 1.47 6
7 09/19/2016 04:00:55 -80.93,-100.36 98.45 09/19/2016 03:59:44 -80.92,-100.28 98.43 1.57 71
8 09/19/2016 04:50:21 80.91, 67.50 81.53 09/19/2016 04:50:40 80.92, 67.32 81.55 3.16 19
9 09/21/2016 09:34:38 80.93, -3.84 82.41 09/21/2016 09:33:40 80.92, -3.68 82.41 2.88 58
10 09/21/2016 10:24:04 -80.92, 163.95 97.61 09/21/2016 10:24:44 -80.92, 163.78 97.61 2.88 40
11 09/23/2016 15:08:20 -80.92, 92.90 96.78 09/23/2016 15:07:43 -80.92, 92.96 96.77 1.08 37




NCC Satellite Simultaneous Nadir Overpasses (SNOs) Prediction Service
